Time,TemperatureF,DewpointF,PressureIn,WindDirection,WindDirectionDegrees,WindSpeedMPH,WindSpeedGustMPH,Humidity,HourlyPrecipIn,Conditions,Clouds,dailyrainin,SoftwareType,DateUTC
2013-01-14 00:07:00,58.0,55.0,29.83,SSE,152,1.0,-999.0,90,-99.99,,,0.01,weatherlink.com 1.10,2013-01-14 05:07:00,
2013-01-14 00:22:00,57.8,55.0,29.79,South,176,2.0,-999.0,89,-99.99,,,0.03,weatherlink.com 1.10,2013-01-14 05:22:00,
2013-01-14 00:37:00,58.7,54.0,29.77,SSE,158,3.0,-999.0,84,-99.99,,,0.03,weatherlink.com 1.10,2013-01-14 05:37:00,
2013-01-14 00:52:00,59.0,53.0,29.80,SSE,154,2.0,-999.0,81,-99.99,,,0.03,weatherlink.com 1.10,2013-01-14 05:52:00,
2013-01-14 01:07:00,59.3,54.0,29.80,SE,128,6.0,-999.0,81,-99.99,,,0.03,weatherlink.com 1.10,2013-01-14 06:07:00,
2013-01-14 01:22:00,59.2,54.0,29.80,SSE,164,0.0,-999.0,82,-99.99,,,0.03,weatherlink.com 1.10,2013-01-14 06:22:00,
2013-01-14 01:37:00,59.0,54.0,29.81,South,171,0.0,-999.0,83,-99.99,,,0.03,weatherlink.com 1.10,2013-01-14 06:37:00,
2013-01-14 01:53:00,58.6,54.0,29.82,WSW,244,6.0,-999.0,85,-99.99,,,0.03,weatherlink.com 1.10,2013-01-14 06:53:00,
2013-01-14 02:08:00,58.3,55.0,29.83,South,179,8.0,-999.0,87,-99.99,,,0.03,weatherlink.com 1.10,2013-01-14 07:08:00,
2013-01-14 02:23:00,58.3,55.0,29.83,SW,223,5.0,-999.0,88,-99.99,,,0.04,weatherlink.com 1.10,2013-01-14 07:23:00,
2013-01-14 02:38:00,58.1,55.0,29.84,SSW,212,7.0,-999.0,88,-99.99,,,0.04,weatherlink.com 1.10,2013-01-14 07:38:00,
2013-01-14 02:53:00,48.3,44.0,29.86,NNW,337,17.0,-999.0,86,-99.99,,,0.05,weatherlink.com 1.10,2013-01-14 07:53:00,
2013-01-14 03:08:00,44.8,42.0,29.94,North,1,6.0,-999.0,90,-99.99,,,0.06,weatherlink.com 1.10,2013-01-14 08:08:00,
2013-01-14 03:23:00,43.8,41.0,29.97,North,357,11.0,-999.0,91,-99.99,,,0.06,weatherlink.com 1.10,2013-01-14 08:23:00,
2013-01-14 03:38:00,42.9,40.0,29.97,North,1,8.0,-999.0,90,-99.99,,,0.06,weatherlink.com 1.10,2013-01-14 08:38:00,
2013-01-14 03:53:00,42.5,39.0,29.98,North,357,12.0,-999.0,88,-99.99,,,0.06,weatherlink.com 1.10,2013-01-14 08:53:00,
2013-01-14 04:08:00,42.2,39.0,29.99,NNW,332,2.0,-999.0,87,-99.99,,,0.06,weatherlink.com 1.10,2013-01-14 09:08:00,
2013-01-14 04:23:00,41.9,39.0,29.99,NNW,332,0.0,-999.0,88,-99.99,,,0.07,weatherlink.com 1.10,2013-01-14 09:23:00,
2013-01-14 04:38:00,41.6,39.0,29.98,NNW,332,0.0,-999.0,89,-99.99,,,0.09,weatherlink.com 1.10,2013-01-14 09:38:00,
2013-01-14 04:53:00,41.5,39.0,29.98,NNW,332,0.0,-999.0,90,-99.99,,,0.09,weatherlink.com 1.10,2013-01-14 09:53:00,
2013-01-14 05:08:00,41.2,39.0,29.99,NNW,329,0.0,-999.0,90,-99.99,,,0.09,weatherlink.com 1.10,2013-01-14 10:08:00,
2013-01-14 05:23:00,41.2,39.0,30.00,NW,326,3.0,-999.0,91,-99.99,,,0.10,weatherlink.com 1.10,2013-01-14 10:23:00,
2013-01-14 05:38:00,40.9,39.0,30.01,NW,319,2.0,-999.0,91,-99.99,,,0.10,weatherlink.com 1.10,2013-01-14 10:38:00,
2013-01-14 05:53:00,40.6,38.0,30.03,NW,315,1.0,-999.0,91,-99.99,,,0.10,weatherlink.com 1.10,2013-01-14 10:53:00,
2013-01-14 06:08:00,40.6,38.0,30.05,NW,309,3.0,-999.0,91,-99.99,,,0.10,weatherlink.com 1.10,2013-01-14 11:08:00,
2013-01-14 06:23:00,40.6,38.0,30.06,NW,311,0.0,-999.0,91,-99.99,,,0.10,weatherlink.com 1.10,2013-01-14 11:23:00,
2013-01-14 06:38:00,40.8,38.0,30.07,NW,311,0.0,-999.0,91,-99.99,,,0.10,weatherlink.com 1.10,2013-01-14 11:38:00,
2013-01-14 06:53:00,40.5,38.0,30.08,NW,316,2.0,-999.0,90,-99.99,,,0.10,weatherlink.com 1.10,2013-01-14 11:53:00,
2013-01-14 07:08:00,40.5,38.0,30.09,NNW,336,0.0,-999.0,90,-99.99,,,0.10,weatherlink.com 1.10,2013-01-14 12:08:00,
2013-01-14 07:23:00,40.3,38.0,30.10,NW,316,6.0,-999.0,90,-99.99,,,0.10,weatherlink.com 1.10,2013-01-14 12:23:00,
2013-01-14 07:38:00,40.1,38.0,30.10,NNW,337,5.0,-999.0,90,-99.99,,,0.10,weatherlink.com 1.10,2013-01-14 12:38:00,
2013-01-14 07:53:00,40.1,38.0,30.11,NW,318,2.0,-999.0,90,-99.99,,,0.10,weatherlink.com 1.10,2013-01-14 12:53:00,
2013-01-14 08:08:00,40.1,37.0,30.12,NW,322,0.0,-999.0,88,-99.99,,,0.10,weatherlink.com 1.10,2013-01-14 13:08:00,
2013-01-14 08:23:00,39.9,37.0,30.12,North,0,4.0,-999.0,88,-99.99,,,0.10,weatherlink.com 1.10,2013-01-14 13:23:00,
2013-01-14 08:38:00,40.1,36.0,30.14,NNW,346,5.0,-999.0,86,-99.99,,,0.10,weatherlink.com 1.10,2013-01-14 13:38:00,
2013-01-14 08:53:00,40.1,36.0,30.14,North,357,2.0,-999.0,86,-99.99,,,0.10,weatherlink.com 1.10,2013-01-14 13:53:00,
2013-01-14 09:08:00,40.1,36.0,30.15,NW,319,3.0,-999.0,85,-99.99,,,0.10,weatherlink.com 1.10,2013-01-14 14:08:00,
2013-01-14 09:23:00,40.2,36.0,30.17,NW,322,0.0,-999.0,86,-99.99,,,0.10,weatherlink.com 1.10,2013-01-14 14:23:00,
2013-01-14 09:38:00,39.8,35.0,30.17,North,0,7.0,-999.0,84,-99.99,,,0.10,weatherlink.com 1.10,2013-01-14 14:38:00,
2013-01-14 09:53:00,39.6,35.0,30.18,North,359,5.0,-999.0,84,-99.99,,,0.10,weatherlink.com 1.10,2013-01-14 14:53:00,
2013-01-14 10:08:00,39.8,35.0,30.18,North,0,6.0,-999.0,83,-99.99,,,0.10,weatherlink.com 1.10,2013-01-14 15:08:00,
2013-01-14 10:23:00,39.6,34.0,30.18,North,0,6.0,-999.0,81,-99.99,,,0.10,weatherlink.com 1.10,2013-01-14 15:23:00,
2013-01-14 10:38:00,39.8,33.0,30.19,North,0,7.0,-999.0,77,-99.99,,,0.10,weatherlink.com 1.10,2013-01-14 15:38:00,
2013-01-14 10:53:00,39.6,32.0,30.18,NW,309,7.0,-999.0,75,-99.99,,,0.10,weatherlink.com 1.10,2013-01-14 15:53:00,
2013-01-14 11:08:00,40.1,32.0,30.18,WNW,298,0.0,-999.0,73,-99.99,,,0.10,weatherlink.com 1.10,2013-01-14 16:08:00,
2013-01-14 11:24:00,39.9,32.0,30.18,North,0,5.0,-999.0,73,-99.99,,,0.10,weatherlink.com 1.10,2013-01-14 16:24:00,
2013-01-14 11:38:00,39.8,32.0,30.17,NNW,343,3.0,-999.0,73,-99.99,,,0.10,weatherlink.com 1.10,2013-01-14 16:38:00,
2013-01-14 11:53:00,39.8,31.0,30.17,NNW,343,6.0,-999.0,72,-99.99,,,0.10,weatherlink.com 1.10,2013-01-14 16:53:00,
2013-01-14 12:09:00,40.1,32.0,30.17,NW,313,0.0,-999.0,72,-99.99,,,0.10,weatherlink.com 1.10,2013-01-14 17:09:00,
2013-01-14 12:24:00,40.1,31.0,30.17,NNW,339,6.0,-999.0,70,-99.99,,,0.10,weatherlink.com 1.10,2013-01-14 17:24:00,
2013-01-14 12:39:00,39.8,31.0,30.16,NNW,339,7.0,-999.0,70,-99.99,,,0.10,weatherlink.com 1.10,2013-01-14 17:39:00,
2013-01-14 12:54:00,39.6,30.0,30.15,NNW,347,6.0,-999.0,69,-99.99,,,0.10,weatherlink.com 1.10,2013-01-14 17:54:00,
2013-01-14 13:09:00,39.6,31.0,30.15,North,0,3.0,-999.0,70,-99.99,,,0.10,weatherlink.com 1.10,2013-01-14 18:09:00,
2013-01-14 13:24:00,39.6,29.0,30.14,NNW,347,5.0,-999.0,67,-99.99,,,0.10,weatherlink.com 1.10,2013-01-14 18:24:00,
2013-01-14 13:39:00,40.5,31.0,30.14,North,0,4.0,-999.0,69,-99.99,,,0.10,weatherlink.com 1.10,2013-01-14 18:39:00,
2013-01-14 13:54:00,40.2,30.0,30.14,North,353,5.0,-999.0,68,-99.99,,,0.10,weatherlink.com 1.10,2013-01-14 18:54:00,
2013-01-14 14:09:00,40.3,30.0,30.12,North,353,0.0,-999.0,68,-99.99,,,0.10,weatherlink.com 1.10,2013-01-14 19:09:00,
2013-01-14 14:24:00,40.5,29.0,30.13,North,354,4.0,-999.0,65,-99.99,,,0.10,weatherlink.com 1.10,2013-01-14 19:24:00,
2013-01-14 14:39:00,39.8,30.0,30.11,North,0,7.0,-999.0,67,-99.99,,,0.10,weatherlink.com 1.10,2013-01-14 19:39:00,
2013-01-14 14:54:00,39.6,29.0,30.12,North,352,6.0,-999.0,67,-99.99,,,0.10,weatherlink.com 1.10,2013-01-14 19:54:00,
2013-01-14 15:09:00,39.6,30.0,30.12,North,350,6.0,-999.0,68,-99.99,,,0.10,weatherlink.com 1.10,2013-01-14 20:09:00,
2013-01-14 15:24:00,39.3,29.0,30.14,NNW,340,6.0,-999.0,66,-99.99,,,0.10,weatherlink.com 1.10,2013-01-14 20:24:00,
2013-01-14 15:39:00,39.1,29.0,30.15,NNW,347,5.0,-999.0,66,-99.99,,,0.10,weatherlink.com 1.10,2013-01-14 20:39:00,
2013-01-14 15:54:00,39.1,29.0,30.15,North,0,5.0,-999.0,66,-99.99,,,0.10,weatherlink.com 1.10,2013-01-14 20:54:00,
2013-01-14 16:09:00,38.9,28.0,30.18,North,0,5.0,-999.0,66,-99.99,,,0.10,weatherlink.com 1.10,2013-01-14 21:09:00,
2013-01-14 16:24:00,38.8,29.0,30.16,North,354,6.0,-999.0,67,-99.99,,,0.10,weatherlink.com 1.10,2013-01-14 21:24:00,
2013-01-14 16:39:00,38.3,29.0,30.18,North,0,7.0,-999.0,68,-99.99,,,0.10,weatherlink.com 1.10,2013-01-14 21:39:00,
2013-01-14 16:54:00,38.2,28.0,30.20,North,0,2.0,-999.0,68,-99.99,,,0.10,weatherlink.com 1.10,2013-01-14 21:54:00,
2013-01-14 17:09:00,38.0,28.0,30.21,North,0,2.0,-999.0,68,-99.99,,,0.10,weatherlink.com 1.10,2013-01-14 22:09:00,
2013-01-14 17:24:00,37.8,28.0,30.21,North,0,2.0,-999.0,68,-99.99,,,0.10,weatherlink.com 1.10,2013-01-14 22:24:00,
2013-01-14 17:39:00,37.8,28.0,30.24,NNW,347,3.0,-999.0,67,-99.99,,,0.10,weatherlink.com 1.10,2013-01-14 22:39:00,
2013-01-14 17:54:00,37.6,27.0,30.25,North,350,5.0,-999.0,66,-99.99,,,0.10,weatherlink.com 1.10,2013-01-14 22:54:00,
2013-01-14 18:09:00,37.3,28.0,30.26,North,350,5.0,-999.0,68,-99.99,,,0.10,weatherlink.com 1.10,2013-01-14 23:09:00,
2013-01-14 18:24:00,37.0,27.0,30.25,North,353,3.0,-999.0,68,-99.99,,,0.10,weatherlink.com 1.10,2013-01-14 23:24:00,
2013-01-14 18:39:00,36.8,27.0,30.25,North,353,3.0,-999.0,68,-99.99,,,0.10,weatherlink.com 1.10,2013-01-14 23:39:00,
2013-01-14 18:54:00,36.5,27.0,30.25,North,356,2.0,-999.0,69,-99.99,,,0.10,weatherlink.com 1.10,2013-01-14 23:54:00,
2013-01-14 19:09:00,36.5,27.0,30.25,North,356,1.0,-999.0,68,-99.99,,,0.10,weatherlink.com 1.10,2013-01-15 00:09:00,
2013-01-14 19:24:00,36.5,27.0,30.27,North,356,0.0,-999.0,68,-99.99,,,0.10,weatherlink.com 1.10,2013-01-15 00:24:00,
2013-01-14 19:39:00,36.3,27.0,30.27,North,354,0.0,-999.0,68,-99.99,,,0.10,weatherlink.com 1.10,2013-01-15 00:39:00,
2013-01-14 19:54:00,36.0,27.0,30.28,North,353,3.0,-999.0,70,-99.99,,,0.10,weatherlink.com 1.10,2013-01-15 00:54:00,
2013-01-14 20:09:00,35.8,27.0,30.27,North,353,3.0,-999.0,69,-99.99,,,0.10,weatherlink.com 1.10,2013-01-15 01:09:00,
2013-01-14 20:24:00,35.6,27.0,30.27,North,353,3.0,-999.0,70,-99.99,,,0.10,weatherlink.com 1.10,2013-01-15 01:24:00,
2013-01-14 20:39:00,35.5,26.0,30.27,North,353,0.0,-999.0,69,-99.99,,,0.10,weatherlink.com 1.10,2013-01-15 01:39:00,
2013-01-14 20:54:00,35.3,26.0,30.27,North,353,0.0,-999.0,69,-99.99,,,0.10,weatherlink.com 1.10,2013-01-15 01:54:00,
2013-01-14 21:09:00,35.3,26.0,30.25,North,353,0.0,-999.0,69,-99.99,,,0.10,weatherlink.com 1.10,2013-01-15 02:09:00,
2013-01-14 21:24:00,35.5,26.0,30.23,North,353,0.0,-999.0,69,-99.99,,,0.10,weatherlink.com 1.10,2013-01-15 02:24:00,
2013-01-14 21:39:00,35.5,27.0,30.21,South,184,2.0,-999.0,70,-99.99,,,0.10,weatherlink.com 1.10,2013-01-15 02:39:00,
2013-01-14 21:54:00,35.6,27.0,30.21,SSE,148,0.0,-999.0,70,-99.99,,,0.10,weatherlink.com 1.10,2013-01-15 02:54:00,
2013-01-14 22:09:00,35.3,27.0,30.21,SSE,148,0.0,-999.0,71,-99.99,,,0.10,weatherlink.com 1.10,2013-01-15 03:09:00,
2013-01-14 22:24:00,35.3,27.0,30.22,SSE,148,0.0,-999.0,72,-99.99,,,0.10,weatherlink.com 1.10,2013-01-15 03:24:00,
2013-01-14 22:39:00,35.0,27.0,30.22,SSE,147,0.0,-999.0,73,-99.99,,,0.10,weatherlink.com 1.10,2013-01-15 03:39:00,
2013-01-14 22:54:00,34.6,27.0,30.22,North,0,4.0,-999.0,73,-99.99,,,0.10,weatherlink.com 1.10,2013-01-15 03:54:00,
2013-01-14 23:09:00,34.0,27.0,30.22,North,0,4.0,-999.0,74,-99.99,,,0.10,weatherlink.com 1.10,2013-01-15 04:09:00,
2013-01-14 23:24:00,33.7,26.0,30.18,North,353,10.0,-999.0,73,-99.99,,,0.10,weatherlink.com 1.10,2013-01-15 04:24:00,
2013-01-14 23:39:00,32.9,25.0,30.21,North,357,6.0,-999.0,74,-99.99,,,0.10,weatherlink.com 1.10,2013-01-15 04:39:00,
2013-01-14 23:54:00,32.8,25.0,30.22,North,0,0.0,-999.0,74,-99.99,,,0.10,weatherlink.com 1.10,2013-01-15 04:54:00,